Fowler
DateTemperatureDew Point
05/07 - 11:45 PM64.9°58.8°
05/07 - 11:30 PM66.6°59.2°
05/07 - 11:15 PM68.2°59.8°
05/07 - 11:00 PM69.0°59.9°
05/07 - 10:45 PM69.6°60.2°
05/07 - 10:30 PM70.2°60.4°
05/07 - 10:15 PM71.3°60.6°
05/07 - 10:00 PM72.5°60.6°
05/07 - 09:45 PM73.2°60.6°
05/07 - 09:30 PM73.4°61.0°
05/07 - 09:15 PM73.4°60.9°
05/07 - 09:00 PM73.5°60.4°
05/07 - 08:45 PM72.4°59.9°
05/07 - 08:30 PM73.0°60.8°
05/07 - 08:15 PM74.4°61.0°
05/07 - 08:00 PM75.7°60.8°
05/07 - 07:45 PM76.9°60.9°
05/07 - 07:30 PM78.3°61.1°
05/07 - 07:15 PM79.8°61.6°
05/07 - 07:00 PM81.2°61.7°
05/07 - 06:45 PM82.3°61.6°
05/07 - 06:30 PM83.1°61.2°
05/07 - 06:15 PM83.7°61.7°
05/07 - 06:00 PM84.3°61.4°
05/07 - 05:45 PM84.8°61.2°
05/07 - 05:30 PM85.3°61.0°
05/07 - 05:15 PM85.5°60.9°
05/07 - 05:00 PM86.0°60.8°
05/07 - 04:45 PM86.3°60.6°
05/07 - 04:30 PM86.1°60.8°
05/07 - 04:15 PM86.1°60.3°
05/07 - 04:00 PM86.3°60.4°
05/07 - 03:45 PM86.0°61.0°
05/07 - 03:30 PM86.2°60.8°
05/07 - 03:15 PM86.2°61.2°
05/07 - 03:00 PM85.8°60.9°
05/07 - 02:45 PM85.3°61.2°
05/07 - 02:30 PM85.1°60.9°
05/07 - 02:15 PM85.1°61.1°
05/07 - 02:00 PM85.5°60.7°
05/07 - 01:45 PM85.8°59.9°
05/07 - 01:30 PM85.8°59.8°
05/07 - 01:15 PM85.8°61.2°
05/07 - 01:00 PM85.7°61.2°
05/07 - 12:45 PM85.7°60.1°
05/07 - 12:30 PM85.5°60.1°
05/07 - 12:15 PM84.3°60.0°
05/07 - 12:00 PM83.3°60.0°
05/07 - 11:45 AM82.5°59.0°
05/07 - 11:30 AM82.0°59.9°
05/07 - 11:15 AM81.1°59.3°
05/07 - 11:00 AM79.3°59.5°
05/07 - 10:45 AM77.9°59.1°
05/07 - 10:30 AM76.5°59.3°
05/07 - 10:15 AM75.5°58.4°
05/07 - 10:00 AM74.2°58.9°
05/07 - 09:45 AM72.9°58.1°
05/07 - 09:30 AM71.7°57.6°
05/07 - 09:15 AM70.2°57.4°
05/07 - 09:00 AM68.8°57.0°
05/07 - 08:45 AM67.2°57.4°
05/07 - 08:30 AM65.7°56.9°
05/07 - 08:15 AM64.0°57.2°
05/07 - 08:00 AM62.3°56.8°
05/07 - 07:45 AM60.5°56.2°
05/07 - 07:30 AM58.5°56.0°
05/07 - 07:15 AM57.2°55.6°
05/07 - 07:00 AM55.5°53.9°
05/07 - 06:45 AM54.1°52.3°
05/07 - 06:30 AM53.2°51.3°
05/07 - 06:15 AM52.7°50.7°
05/07 - 06:00 AM52.6°50.4°
05/07 - 05:45 AM52.5°50.3°
05/07 - 05:30 AM52.4°50.1°
05/07 - 05:15 AM52.5°49.9°
05/07 - 05:00 AM52.7°50.0°
05/07 - 04:45 AM53.0°50.2°
05/07 - 04:30 AM53.5°50.7°
05/07 - 04:15 AM53.9°51.3°
05/07 - 04:00 AM54.1°51.6°
05/07 - 03:45 AM54.2°51.4°
05/07 - 03:30 AM54.5°51.5°
05/07 - 03:15 AM54.9°52.0°
05/07 - 03:00 AM55.3°52.5°
05/07 - 02:45 AM55.4°52.6°
05/07 - 02:30 AM55.5°52.4°
05/07 - 02:15 AM55.9°52.4°
05/07 - 02:00 AM56.4°52.8°
05/07 - 01:45 AM57.0°53.4°
05/07 - 01:30 AM57.2°53.9°
05/07 - 01:15 AM57.3°54.3°
05/07 - 01:00 AM57.1°53.8°
05/07 - 12:45 AM57.2°53.6°
05/07 - 12:30 AM57.3°53.7°
05/07 - 12:15 AM57.5°53.6°
05/07 - 12:00 AM57.7°53.7°
05/06 - 11:45 PM58.0°53.8°
05/06 - 11:30 PM58.3°54.0°
05/06 - 11:15 PM58.6°54.1°
05/06 - 11:00 PM58.9°54.2°
05/06 - 10:45 PM59.3°54.3°
05/06 - 10:30 PM59.6°54.5°
05/06 - 10:15 PM59.9°54.6°
05/06 - 10:00 PM60.3°54.6°
05/06 - 09:45 PM60.9°54.5°
05/06 - 09:30 PM61.4°54.6°
05/06 - 09:15 PM62.1°54.9°
05/06 - 09:00 PM62.8°54.8°
05/06 - 08:45 PM63.6°54.8°
05/06 - 08:30 PM64.6°55.0°
05/06 - 08:15 PM65.8°55.4°
05/06 - 08:00 PM67.3°55.5°
05/06 - 07:45 PM68.7°55.6°
05/06 - 07:30 PM70.2°55.7°
05/06 - 07:15 PM71.7°56.2°
05/06 - 07:00 PM73.0°55.8°
05/06 - 06:45 PM74.1°55.3°
05/06 - 06:30 PM74.8°54.6°
05/06 - 06:15 PM75.3°54.4°
05/06 - 06:00 PM75.7°54.1°
05/06 - 05:45 PM76.0°54.4°
05/06 - 05:30 PM76.3°54.5°
05/06 - 05:15 PM76.5°54.5°
05/06 - 05:00 PM76.8°54.8°
05/06 - 04:45 PM77.0°54.5°
05/06 - 04:30 PM77.3°54.6°
05/06 - 04:15 PM77.8°55.2°
05/06 - 04:00 PM77.9°54.7°
05/06 - 03:45 PM77.7°54.6°
05/06 - 03:30 PM77.9°54.9°
05/06 - 03:15 PM77.4°54.2°
05/06 - 03:00 PM77.6°53.9°
05/06 - 02:45 PM77.8°53.8°
05/06 - 02:30 PM78.0°53.9°
05/06 - 02:15 PM78.3°54.2°
05/06 - 02:00 PM78.8°55.1°
05/06 - 01:45 PM77.9°53.6°
05/06 - 01:30 PM78.2°54.0°
05/06 - 01:15 PM77.7°54.2°
05/06 - 01:00 PM77.6°53.9°
05/06 - 12:45 PM78.0°52.8°
05/06 - 12:30 PM77.9°53.6°
05/06 - 12:15 PM77.6°53.7°
05/06 - 12:00 PM76.5°54.7°
05/06 - 11:45 AM73.5°53.7°
05/06 - 11:30 AM72.8°53.5°
05/06 - 11:15 AM72.7°53.3°
05/06 - 11:00 AM72.6°53.5°
05/06 - 10:45 AM71.1°54.2°
05/06 - 10:30 AM70.0°54.4°
05/06 - 10:15 AM68.4°53.7°
05/06 - 10:00 AM67.4°54.1°
05/06 - 09:45 AM66.0°53.7°
05/06 - 09:30 AM65.1°53.9°
05/06 - 09:15 AM63.5°53.5°
05/06 - 09:00 AM62.1°53.2°
05/06 - 08:45 AM60.8°53.3°
05/06 - 08:30 AM59.2°53.1°
05/06 - 08:15 AM57.3°52.4°
05/06 - 08:00 AM55.5°52.8°
05/06 - 07:45 AM54.6°53.0°
05/06 - 07:30 AM53.6°52.1°
05/06 - 07:15 AM52.3°50.7°
05/06 - 07:00 AM50.9°49.3°
05/06 - 06:45 AM49.0°47.3°
05/06 - 06:30 AM47.5°45.6°
05/06 - 06:15 AM47.1°45.0°
05/06 - 06:00 AM47.2°45.1°
05/06 - 05:45 AM47.5°45.5°
05/06 - 05:30 AM47.3°45.2°
05/06 - 05:15 AM47.3°45.1°
05/06 - 05:00 AM47.4°45.0°
05/06 - 04:45 AM47.4°44.8°
05/06 - 04:30 AM47.7°45.1°
05/06 - 04:15 AM48.0°45.4°
05/06 - 04:00 AM48.3°45.6°
05/06 - 03:45 AM48.6°45.9°
05/06 - 03:30 AM48.8°46.1°
05/06 - 03:15 AM49.1°46.4°
05/06 - 03:00 AM49.3°46.4°
05/06 - 02:45 AM49.6°46.7°
05/06 - 02:30 AM50.1°47.1°
05/06 - 02:15 AM50.6°47.5°
05/06 - 02:00 AM50.9°47.7°
05/06 - 01:45 AM51.2°48.1°
05/06 - 01:30 AM51.7°48.4°
05/06 - 01:15 AM52.1°48.8°
05/06 - 01:00 AM52.5°49.3°
05/06 - 12:45 AM52.6°49.6°
05/06 - 12:30 AM52.6°49.3°